#timestamp,LO_Frequency,Hit 
1498284015.1,286046999.5,N
1498284035.9,286046999.4,N
1498284055.7,286046996.8,N
1498284075.5,286046994.7,N
1498284095.4,286046994.4,N
1498284115.2,286046995.4,N
1498284135.0,286046997.5,N
1498284135.9,286046997.5,N
1498284155.8,286046999.6,N
1498284175.6,286046997.9,N
1498284195.4,286046997.4,N
1498284215.3,286046996.0,N
1498284235.1,286046991.7,N
1498284236.0,286046991.7,N
1498284255.8,286046992.3,N
1498284275.7,286046990.7,N
1498284295.5,286046991.3,N
1498284315.3,286046988.8,N
1498284335.1,286046991.6,N
1498284355.9,286046989.6,N
1498284375.7,286046988.3,N
1498284395.5,286046989.9,N
1498284415.4,286046989.8,N
1498284435.2,286046990.6,N
1498284455.3,286046994.5,N
1498284475.1,286046997.5,N
1498284495.9,286046998.3,N
1498284515.7,286047000.6,N
1498284535.5,286046999.9,N
1498284555.4,286047000.2,N
1498284575.2,286047001.1,N
1498284595.0,286046998.1,N
1498284595.9,286046998.1,N
1498284615.8,286046997.7,N
1498284635.6,286046996.3,N
1498284655.4,286046993.8,N
1498284675.2,286046994.3,N
1498284695.1,286046990.1,N
1498284696.0,286046990.1,N
1498284715.8,286046990.7,N
1498284735.6,286046988.9,N
1498284755.5,286046989.2,N
1498284775.3,286046990.9,N
1498284795.1,286046990.6,N
1498284815.9,286046994.4,N
1498284835.7,286046997.6,N
1498284855.5,286046999.6,N
1498284875.4,286046998.9,N
1498284895.2,286047001.0,N
1498284915.0,286047002.8,N
1498284915.9,286047002.8,N
1498284935.8,286047002.2,N
1498284955.6,286047002.3,N
1498284975.4,286046999.8,N
1498284995.2,286046999.8,N
1498285015.1,286047000.6,N
1498285016.0,286047000.6,N
1498285035.8,286047000.5,N
1498285055.6,286047002.3,N
1498285075.5,286047001.4,N
1498285095.3,286046999.8,N
1498285115.1,286047000.6,N
1498285135.9,286046999.4,N
1498285155.7,286046998.7,N
1498285175.5,286046999.5,N
1498285195.4,286046997.5,N
1498285215.2,286046995.7,N
1498285235.0,286046994.9,N
1498285235.9,286046994.9,N
1498285255.8,286046996.4,N
1498285275.6,286046994.9,N
1498285295.4,286046994.9,N
1498285315.2,286046995.5,N
1498285335.1,286046996.5,N
1498285336.0,286046996.5,N
1498285355.8,286046997.6,N
1498285375.6,286046998.0,N
1498285395.5,286046996.2,N
1498285415.3,286046996.1,N
1498285435.1,286046996.4,N
1498285455.9,286046994.7,N
1498285475.7,286046992.1,N
1498285495.5,286046990.5,N
1498285515.4,286046990.9,N
1498285535.2,286046991.2,N
1498285555.0,286046988.8,N
1498285555.9,286046988.8,N
1498285575.8,286046987.8,N
1498285595.6,286046988.4,N
1498285615.4,286046988.4,N
1498285635.2,286046988.0,N
1498285655.1,286046988.4,N
1498285656.0,286046988.4,N
1498285675.8,286046985.6,N
1498285695.6,286046986.1,N
1498285715.5,286046986.0,N
1498285735.3,286046985.4,N
1498285755.1,286046985.3,N
1498285775.9,286046985.4,N
1498285795.7,286046986.1,N
1498285815.5,286046985.4,N
1498285835.4,286046987.9,N
1498285855.2,286046988.3,N
1498285875.0,286046987.4,N
1498285875.9,286046987.4,N
1498285895.8,286046990.0,N
1498285915.6,286046987.5,N
1498285935.4,286046991.3,N
1498285955.2,286046990.6,N
1498285975.1,286046992.6,N
1498285976.0,286046992.6,N
1498285995.8,286046992.2,N
1498286015.6,286046992.9,N
1498286035.5,286046991.5,N
1498286055.3,286046989.4,N
1498286075.1,286046989.2,N
1498286095.9,286046988.7,N
1498286115.7,286046988.7,N
1498286135.5,286046990.0,N
1498286155.4,286046987.9,N
1498286175.2,286046986.6,N
1498286195.0,286046987.8,N
1498286195.9,286046987.8,N
1498286215.8,286046986.2,N
1498286235.6,286046988.3,N
1498286255.4,286046990.0,N
1498286275.2,286046985.4,N
1498286295.1,286046988.1,N
1498286296.0,286046988.1,N
1498286315.8,286046985.3,N
1498286335.6,286046985.4,N
1498286355.5,286046987.1,N
1498286375.3,286046988.5,N
1498286395.1,286046989.8,N
1498286415.9,286046987.5,N
1498286435.7,286046986.9,N
1498286455.5,286046989.1,N
1498286475.4,286046988.6,N
1498286495.2,286046988.1,N
1498286515.0,286046985.3,N
1498286515.9,286046985.3,N
1498286535.8,286046986.1,N
1498286555.6,286046982.8,N
1498286575.4,286046980.7,N
1498286595.2,286046983.0,N
1498286615.1,286046985.1,N
1498286616.0,286046985.1,N
1498286635.8,286046982.4,N
1498286655.6,286046984.5,N
1498286675.5,286046984.7,N
1498286695.3,286046984.8,N
1498286715.1,286046982.6,N
1498286735.9,286046984.5,N
1498286755.7,286046984.6,N
1498286775.5,286046984.4,N
1498286795.4,286046984.8,N
1498286815.2,286046986.2,N
1498286835.0,286046987.7,N
1498286835.9,286046987.7,N
1498286855.8,286046988.9,N
1498286875.6,286046991.0,N
1498286895.4,286046991.6,N
1498286915.2,286046989.3,N
1498286935.1,286046989.5,N
1498286936.0,286046989.5,N
1498286955.8,286046989.2,N
1498286975.6,286046989.1,N
1498286995.5,286046990.5,N
1498287015.3,286046990.6,N
1498287035.1,286046990.8,N
1498287055.9,286046987.6,N
1498287075.7,286046988.1,N
1498287095.5,286046989.4,N
1498287115.4,286046990.7,N
1498287135.2,286046990.9,N
1498287155.0,286046990.5,N
1498287155.9,286046990.5,N
1498287175.8,286046992.3,N
1498287195.6,286046994.3,N
1498287215.4,286046994.8,N
1498287235.2,286046994.0,N
1498287255.1,286046995.4,N
1498287256.0,286046995.4,N
1498287275.8,286046999.2,N
1498287295.6,286046998.9,N
1498287315.5,286046999.6,N
1498287335.3,286046996.8,N
1498287355.1,286046995.9,N
1498287375.9,286046994.3,N
1498287395.7,286046992.8,N
1498287415.5,286046989.8,N
1498287435.4,286046987.8,N
1498287455.2,286046985.3,N
1498287475.0,286046989.5,N
1498287475.9,286046989.5,N
1498287495.8,286046989.5,N
1498287515.6,286046989.3,N
1498287535.4,286046988.6,N
1498287555.2,286046990.8,N
1498287575.1,286046991.3,N
1498287576.0,286046991.3,N
1498287595.8,286046990.4,N
